Regional Weather Roundup
Issued by NWS

Home | Current Version | Previous Version | Text Only | Print | Product List | Glossary On
Versions: 1 2 3 4 5 6 7 8 9 10 11 12 13 14 15 16 17 18 19 20 21 22 23 24 25 26 27 28 29 30 31 32 33 34 35 36 37 38 39 40 41 42 43 44 45 46 47 48 49 50
000
ASUS46 KPQR 301010
RWROR

OREGON REGIONAL WEATHER ROUNDUP
NATIONAL WEATHER SERVICE PORTLAND OR
300 AM PDT TUE SEP 30 2014

NOTE: "FAIR" INDICATES FEW OR NO CLOUDS BELOW 12,000 FEET WITH
NO SIGNIFICANT WEATHER AND/OR OBSTRUCTIONS TO VISIBILITY.

ORZ001>013-301100-
NORTHWEST OREGON


CITY           SKY/WX    TMP DP  RH WIND       PRES   REMARKS
ASTORIA        CLEAR     55  52  89 W7        30.06S
NEWPORT        CLOUDY    55  55 100 S5        30.14R
PORTLAND       CLOUDY    57  54  89 W3        30.08R
VANCOUVER WA   CLOUDY    56  53  90 N3        30.07R
SCAPPOOSE      LGT RAIN  53  52  96 VRB3      30.07R
HILLSBORO      LGT RAIN  49  49 100 CALM      30.08R FOG
AURORA         MOCLDY    53  52  96 S3        30.09R
MCMINNVILLE    PTCLDY    54  52  93 W6        30.09S
SALEM          LGT RAIN  55  52  89 SE5       30.08S
CORVALLIS      MOCLDY    52  48  87 SW3       30.12R
EUGENE         PTCLDY    53  51  93 SW3       30.11R
$$

ORZ021-028-301100-
SOUTHWEST OREGON


CITY           SKY/WX    TMP DP  RH WIND       PRES   REMARKS
NORTH BEND     PTCLDY    55  55 100 S3        30.14R
BROOKINGS      SUNNY     58  47  66 VRB5      30.08S
ROSEBURG       CLOUDY    55  52  89 CALM      30.12S
SEXTON SUMMIT  FOG       43  43 100 MISG      30.11R VSB 1/2
MEDFORD        CLOUDY    59  48  67 NW6       30.10S
$$

ORZ009-041-301100-
COLUMBIA GORGE


CITY           SKY/WX    TMP DP  RH WIND       PRES   REMARKS
TROUTDALE      CLOUDY    57  53  86 CALM      30.06R
THE DALLES     PTCLDY    58  46  64 NW8       29.98R
$$

ORZ029>031-042>050-061>064-301100-
EASTERN OREGON


CITY           SKY/WX    TMP DP  RH WIND       PRES   REMARKS
REDMOND        PTCLDY    48  38  68 W10       30.05S
BEND           SUNNY     46  36  66 CALM      30.08S
KLAMATH FALLS  MOCLDY    53  43  68 N12       30.06S
LAKEVIEW       CLOUDY    46  39  76 CALM      30.06S
HERMISTON      CLEAR     58  43  57 W17G26    29.92R
PENDLETON      PTCLDY    55  39  54 W17G25    29.94R
JOHN DAY       MOSUNNY   51  45  79 W14       29.99S
MEACHAM        CLOUDY    46  42  86 VRB3      29.98S
LA GRANDE      CLOUDY    50  39  66 NE6       29.95R
BAKER CITY     CLOUDY    49  49 100 W6        29.94S FOG
BURNS          CLEAR     45  41  86 SW9       30.01R
ROME             N/A     53  45  74 S7        29.96S
ONTARIO        CLOUDY    54  53  97 SW5       29.94F FOG
$$


USA.gov is the U.S. government's official web portal to all federal, state and local government web resources and services.